Year,Month,Day,Hour,Minute,Value (Times are PST for temperature in C)
2020,12,04,00,00,6.50
2020,12,04,00,01,6.50
2020,12,04,00,02,6.40
2020,12,04,00,03,6.40
2020,12,04,00,04,6.40
2020,12,04,00,05,6.40
2020,12,04,00,06,6.30
2020,12,04,00,07,6.30
2020,12,04,00,08,6.30
2020,12,04,00,09,6.30
2020,12,04,00,10,6.30
2020,12,04,00,11,6.20
2020,12,04,00,12,6.20
2020,12,04,00,13,6.20
2020,12,04,00,14,6.20
2020,12,04,00,15,6.10
2020,12,04,00,16,6.10
2020,12,04,00,17,6.00
2020,12,04,00,18,6.00
2020,12,04,00,19,5.90
2020,12,04,00,20,5.90
2020,12,04,00,21,5.80
2020,12,04,00,22,5.80
2020,12,04,00,23,5.80
2020,12,04,00,24,5.80
2020,12,04,00,25,5.70
2020,12,04,00,26,5.70
2020,12,04,00,27,5.70
2020,12,04,00,28,5.60
2020,12,04,00,29,5.60
2020,12,04,00,30,5.50
2020,12,04,00,31,5.50
2020,12,04,00,32,5.40
2020,12,04,00,33,5.40
2020,12,04,00,34,5.30
2020,12,04,00,35,5.30
2020,12,04,00,36,5.20
2020,12,04,00,37,5.20
2020,12,04,00,38,5.20
2020,12,04,00,39,5.10
2020,12,04,00,40,5.10
2020,12,04,00,41,5.10
2020,12,04,00,42,5.00
2020,12,04,00,43,4.90
2020,12,04,00,44,4.90
2020,12,04,00,45,4.90
2020,12,04,00,46,4.80
2020,12,04,00,47,4.80
2020,12,04,00,48,4.80
2020,12,04,00,49,4.70
2020,12,04,00,50,4.70
2020,12,04,00,51,4.60
2020,12,04,00,52,4.60
2020,12,04,00,53,4.60
2020,12,04,00,54,4.50
2020,12,04,00,55,4.50
2020,12,04,00,56,4.40
2020,12,04,00,57,4.40
2020,12,04,00,58,4.40
2020,12,04,00,59,4.30
2020,12,04,01,00,4.30
2020,12,04,01,01,4.30
2020,12,04,01,02,4.20
2020,12,04,01,03,4.20
2020,12,04,01,04,4.20
2020,12,04,01,05,4.20
2020,12,04,01,06,4.10
2020,12,04,01,07,4.10
2020,12,04,01,08,4.00
2020,12,04,01,09,4.00
2020,12,04,01,10,3.90
2020,12,04,01,11,3.90
2020,12,04,01,12,3.90
2020,12,04,01,13,3.80
2020,12,04,01,14,3.80
2020,12,04,01,15,3.80
2020,12,04,01,16,3.70
2020,12,04,01,17,3.70
2020,12,04,01,18,3.70
2020,12,04,01,19,3.70
2020,12,04,01,20,3.70
2020,12,04,01,21,3.70
2020,12,04,01,22,3.70
2020,12,04,01,23,3.70
2020,12,04,01,24,3.60
2020,12,04,01,25,3.60
2020,12,04,01,26,3.60
2020,12,04,01,27,3.60
2020,12,04,01,28,3.60
2020,12,04,01,29,3.50
2020,12,04,01,30,3.50
2020,12,04,01,31,3.50
2020,12,04,01,32,3.40
2020,12,04,01,33,3.40
2020,12,04,01,34,3.40
2020,12,04,01,35,3.40
2020,12,04,01,36,3.30
2020,12,04,01,37,3.30
2020,12,04,01,38,3.30
2020,12,04,01,39,3.30
2020,12,04,01,40,3.30
2020,12,04,01,41,3.30
2020,12,04,01,42,3.30
2020,12,04,01,43,3.30
2020,12,04,01,44,3.20
2020,12,04,01,45,3.20
2020,12,04,01,46,3.20
2020,12,04,01,47,3.10
2020,12,04,01,48,3.10
2020,12,04,01,49,3.10
2020,12,04,01,50,3.00
2020,12,04,01,51,3.00
2020,12,04,01,52,3.00
2020,12,04,01,53,3.00
2020,12,04,01,54,3.00
2020,12,04,01,55,3.00
2020,12,04,01,56,3.10
2020,12,04,01,57,3.10
2020,12,04,01,58,3.20
2020,12,04,01,59,3.20
2020,12,04,02,00,3.20
2020,12,04,02,01,3.20
2020,12,04,02,02,3.20
2020,12,04,02,03,3.30
2020,12,04,02,04,3.50
2020,12,04,02,05,3.50
2020,12,04,02,06,3.50
2020,12,04,02,07,3.50
2020,12,04,02,08,3.40
2020,12,04,02,09,3.40
2020,12,04,02,10,3.40
2020,12,04,02,11,3.40
2020,12,04,02,12,3.40
2020,12,04,02,13,3.40
2020,12,04,02,14,3.40
2020,12,04,02,15,3.40
2020,12,04,02,16,3.40
2020,12,04,02,17,3.40
2020,12,04,02,18,3.40
2020,12,04,02,19,3.30
2020,12,04,02,20,3.30
2020,12,04,02,21,3.30
2020,12,04,02,22,3.30
2020,12,04,02,23,3.30
2020,12,04,02,24,3.20
2020,12,04,02,25,3.20
2020,12,04,02,26,3.10
2020,12,04,02,27,3.10
2020,12,04,02,28,3.00
2020,12,04,02,29,3.00
2020,12,04,02,30,3.00
2020,12,04,02,31,3.00
2020,12,04,02,32,3.10
2020,12,04,02,33,3.10
2020,12,04,02,34,3.10
2020,12,04,02,35,3.20
2020,12,04,02,36,3.20
2020,12,04,02,37,3.20
2020,12,04,02,38,3.40
2020,12,04,02,39,3.50
2020,12,04,02,40,3.70
2020,12,04,02,41,3.80
2020,12,04,02,42,3.90
2020,12,04,02,43,4.00
2020,12,04,02,44,4.00
2020,12,04,02,45,4.10
2020,12,04,02,46,4.10
2020,12,04,02,47,4.20
2020,12,04,02,48,4.20
2020,12,04,02,49,4.20
2020,12,04,02,50,4.20
2020,12,04,02,51,4.20
2020,12,04,02,52,4.20
2020,12,04,02,53,4.20
2020,12,04,02,54,4.30
2020,12,04,02,55,4.40
2020,12,04,02,56,4.40
2020,12,04,02,57,4.50
2020,12,04,02,58,4.50
2020,12,04,02,59,4.60
2020,12,04,03,00,4.60
2020,12,04,03,01,4.60
2020,12,04,03,02,4.60
2020,12,04,03,03,4.70
2020,12,04,03,04,4.70
2020,12,04,03,05,4.70
2020,12,04,03,06,4.70
2020,12,04,03,07,4.70
2020,12,04,03,08,4.70
2020,12,04,03,09,4.80
2020,12,04,03,10,4.80
2020,12,04,03,11,4.80
2020,12,04,03,12,4.80
2020,12,04,03,13,4.80
2020,12,04,03,14,4.80
2020,12,04,03,15,4.80
2020,12,04,03,16,4.70
2020,12,04,03,17,4.70
2020,12,04,03,18,4.70
2020,12,04,03,19,4.70
2020,12,04,03,20,4.70
2020,12,04,03,21,4.70
2020,12,04,03,22,4.70
2020,12,04,03,23,4.70
2020,12,04,03,24,4.70
2020,12,04,03,25,4.70
2020,12,04,03,26,4.70
2020,12,04,03,27,4.70
2020,12,04,03,28,4.70
2020,12,04,03,29,4.70
2020,12,04,03,30,4.70
2020,12,04,03,31,4.70
2020,12,04,03,32,4.70
2020,12,04,03,33,4.70
2020,12,04,03,34,4.70
2020,12,04,03,35,4.70
2020,12,04,03,36,4.70
2020,12,04,03,37,4.70
2020,12,04,03,38,4.70
2020,12,04,03,39,4.70
2020,12,04,03,40,4.80
2020,12,04,03,41,4.80
2020,12,04,03,42,4.80
2020,12,04,03,43,4.80
2020,12,04,03,44,4.70
2020,12,04,03,45,4.70
2020,12,04,03,46,4.70
2020,12,04,03,47,4.60
2020,12,04,03,48,4.60
2020,12,04,03,49,4.60
2020,12,04,03,50,4.50
2020,12,04,03,51,4.50
2020,12,04,03,52,4.50
2020,12,04,03,53,4.40
2020,12,04,03,54,4.30
2020,12,04,03,55,4.20
2020,12,04,03,56,4.10
2020,12,04,03,57,4.10
2020,12,04,03,58,4.10
2020,12,04,03,59,4.10
2020,12,04,04,00,4.00
2020,12,04,04,01,3.90
2020,12,04,04,02,4.00
2020,12,04,04,03,4.00
2020,12,04,04,04,4.00
2020,12,04,04,05,4.10
2020,12,04,04,06,4.20
2020,12,04,04,07,4.20
2020,12,04,04,08,4.20
2020,12,04,04,09,4.20
2020,12,04,04,10,4.30
2020,12,04,04,11,4.20
2020,12,04,04,12,4.30
2020,12,04,04,13,4.30
2020,12,04,04,14,4.40
2020,12,04,04,15,4.50
2020,12,04,04,16,4.50
2020,12,04,04,17,4.60
2020,12,04,04,18,4.60
2020,12,04,04,19,4.60
2020,12,04,04,20,4.60
2020,12,04,04,21,4.70
2020,12,04,04,22,4.70
2020,12,04,04,23,4.70
2020,12,04,04,24,4.70
2020,12,04,04,25,4.70
2020,12,04,04,26,4.80
2020,12,04,04,27,4.80
2020,12,04,04,28,4.80
2020,12,04,04,29,4.70
2020,12,04,04,30,4.70
2020,12,04,04,31,4.70
2020,12,04,04,32,4.70
2020,12,04,04,33,4.70
2020,12,04,04,34,4.70
2020,12,04,04,35,4.70
2020,12,04,04,36,4.70
2020,12,04,04,37,4.70
2020,12,04,04,38,4.70
2020,12,04,04,39,4.70
2020,12,04,04,40,4.70
2020,12,04,04,41,4.70
2020,12,04,04,42,4.70
2020,12,04,04,43,4.60
2020,12,04,04,44,4.70
2020,12,04,04,45,4.60
2020,12,04,04,46,4.60
2020,12,04,04,47,4.60
2020,12,04,04,48,4.70
2020,12,04,04,49,4.70
2020,12,04,04,50,4.60
2020,12,04,04,51,4.60
2020,12,04,04,52,4.60
2020,12,04,04,53,4.60
2020,12,04,04,54,4.60
2020,12,04,04,55,4.60
2020,12,04,04,56,4.60
2020,12,04,04,57,4.50
2020,12,04,04,58,4.50
2020,12,04,04,59,4.40
2020,12,04,05,00,4.30
2020,12,04,05,01,4.10
2020,12,04,05,02,3.90
2020,12,04,05,03,3.70
2020,12,04,05,04,3.50
2020,12,04,05,05,3.40
2020,12,04,05,06,3.20
2020,12,04,05,07,3.00
2020,12,04,05,08,2.80
2020,12,04,05,09,2.70
2020,12,04,05,10,2.60
2020,12,04,05,11,2.50
2020,12,04,05,12,2.40
2020,12,04,05,13,2.40
2020,12,04,05,14,2.30
2020,12,04,05,15,2.30
2020,12,04,05,16,2.20
2020,12,04,05,17,2.20
2020,12,04,05,18,2.20
2020,12,04,05,19,2.20
2020,12,04,05,20,2.10
2020,12,04,05,21,2.10
2020,12,04,05,22,2.10
2020,12,04,05,23,2.10
2020,12,04,05,24,2.10
2020,12,04,05,25,2.00
2020,12,04,05,26,2.00
2020,12,04,05,27,1.90
2020,12,04,05,28,1.90
2020,12,04,05,29,1.90
2020,12,04,05,30,1.90
2020,12,04,05,31,1.80
2020,12,04,05,32,1.70
2020,12,04,05,33,1.70
2020,12,04,05,34,1.70
2020,12,04,05,35,1.60
2020,12,04,05,36,1.60
2020,12,04,05,37,1.60
2020,12,04,05,38,1.50
2020,12,04,05,39,1.50
2020,12,04,05,40,1.50
2020,12,04,05,41,1.50
2020,12,04,05,42,1.50
2020,12,04,05,43,1.50
2020,12,04,05,44,1.50
2020,12,04,05,45,1.60
2020,12,04,05,46,1.60
2020,12,04,05,47,1.60
2020,12,04,05,48,1.60
2020,12,04,05,49,1.60
2020,12,04,05,50,1.60
2020,12,04,05,51,1.60
2020,12,04,05,52,1.60
2020,12,04,05,53,1.50
2020,12,04,05,54,1.50
2020,12,04,05,55,1.40
2020,12,04,05,56,1.40
2020,12,04,05,57,1.40
2020,12,04,05,58,1.40
2020,12,04,05,59,1.40
2020,12,04,06,00,1.40
2020,12,04,06,01,1.30
2020,12,04,06,02,1.30
2020,12,04,06,03,1.30
2020,12,04,06,04,1.30
2020,12,04,06,05,1.30
2020,12,04,06,06,1.30
2020,12,04,06,07,1.30
2020,12,04,06,08,1.20
2020,12,04,06,09,1.20
2020,12,04,06,10,1.20
2020,12,04,06,11,1.30
2020,12,04,06,12,1.30
2020,12,04,06,13,1.30
2020,12,04,06,14,1.30
2020,12,04,06,15,1.30
2020,12,04,06,16,1.20
2020,12,04,06,17,1.20
2020,12,04,06,18,1.20
2020,12,04,06,19,1.10
2020,12,04,06,20,1.10
2020,12,04,06,21,1.10
2020,12,04,06,22,1.10
2020,12,04,06,23,1.00
2020,12,04,06,24,1.00
2020,12,04,06,25,1.00
2020,12,04,06,26,0.90
2020,12,04,06,27,0.90
2020,12,04,06,28,0.90
2020,12,04,06,29,0.90
2020,12,04,06,30,0.90
2020,12,04,06,31,0.80
2020,12,04,06,32,0.80
2020,12,04,06,33,0.80
2020,12,04,06,34,0.80
2020,12,04,06,35,0.80
2020,12,04,06,36,0.80
2020,12,04,06,37,0.80
2020,12,04,06,38,0.70
2020,12,04,06,39,0.70
2020,12,04,06,40,0.70
2020,12,04,06,41,0.70
2020,12,04,06,42,0.70
2020,12,04,06,43,0.60
2020,12,04,06,44,0.60
2020,12,04,06,45,0.60
2020,12,04,06,46,0.60
2020,12,04,06,47,0.60
2020,12,04,06,48,0.60
2020,12,04,06,49,0.60
2020,12,04,06,50,0.60
2020,12,04,06,51,0.50
2020,12,04,06,52,0.60
2020,12,04,06,53,0.50
2020,12,04,06,54,0.50
2020,12,04,06,55,0.50
2020,12,04,06,56,0.50
2020,12,04,06,57,0.50
2020,12,04,06,58,0.50
2020,12,04,06,59,0.50
2020,12,04,07,00,0.60
2020,12,04,07,01,0.60
2020,12,04,07,02,0.60
2020,12,04,07,03,0.60
2020,12,04,07,04,0.60
2020,12,04,07,05,0.50
2020,12,04,07,06,0.50
2020,12,04,07,07,0.50
2020,12,04,07,08,0.50
2020,12,04,07,09,0.50
2020,12,04,07,10,0.40
2020,12,04,07,11,0.40
2020,12,04,07,12,0.40
2020,12,04,07,13,0.40
2020,12,04,07,14,0.30
2020,12,04,07,15,0.30
2020,12,04,07,16,0.40
2020,12,04,07,17,0.40
2020,12,04,07,18,0.40
2020,12,04,07,19,0.40
2020,12,04,07,20,0.40
2020,12,04,07,21,0.40
2020,12,04,07,22,0.40
2020,12,04,07,23,0.40
2020,12,04,07,24,0.40
2020,12,04,07,25,0.40
2020,12,04,07,26,0.40
2020,12,04,07,27,0.40
2020,12,04,07,28,0.40
2020,12,04,07,29,0.40
2020,12,04,07,30,0.30
2020,12,04,07,31,0.30
2020,12,04,07,32,0.30
2020,12,04,07,33,0.30
2020,12,04,07,34,0.30
2020,12,04,07,35,0.30
2020,12,04,07,36,0.40
2020,12,04,07,37,0.40
2020,12,04,07,38,0.40
2020,12,04,07,39,0.40
2020,12,04,07,40,0.40
2020,12,04,07,41,0.40
2020,12,04,07,42,0.40
2020,12,04,07,43,0.40
2020,12,04,07,44,0.30
2020,12,04,07,45,0.30
2020,12,04,07,46,0.30
2020,12,04,07,47,0.30
2020,12,04,07,48,0.30
2020,12,04,07,49,0.30
2020,12,04,07,50,0.30
2020,12,04,07,51,0.30
2020,12,04,07,52,0.30
2020,12,04,07,53,0.30
2020,12,04,07,54,0.30
2020,12,04,07,55,0.30
2020,12,04,07,56,0.30
2020,12,04,07,57,0.40
2020,12,04,07,58,0.40
2020,12,04,07,59,0.50
2020,12,04,08,00,0.50
2020,12,04,08,01,0.60
2020,12,04,08,02,0.60
2020,12,04,08,03,0.70
2020,12,04,08,04,0.70
2020,12,04,08,05,0.70
2020,12,04,08,06,0.70
2020,12,04,08,07,0.70
2020,12,04,08,08,0.70
2020,12,04,08,09,0.80
2020,12,04,08,10,0.80
2020,12,04,08,11,0.80
2020,12,04,08,12,0.80
2020,12,04,08,13,0.70
2020,12,04,08,14,0.70
2020,12,04,08,15,0.70
2020,12,04,08,16,0.60
2020,12,04,08,17,0.60
2020,12,04,08,18,0.50
2020,12,04,08,19,0.50
2020,12,04,08,20,0.50
2020,12,04,08,21,0.50
2020,12,04,08,22,0.40
2020,12,04,08,23,0.50
2020,12,04,08,24,0.50
2020,12,04,08,25,0.60
2020,12,04,08,26,0.60
2020,12,04,08,27,0.60
2020,12,04,08,28,0.70
2020,12,04,08,29,0.70
2020,12,04,08,30,0.70
2020,12,04,08,31,0.70
2020,12,04,08,32,0.70
2020,12,04,08,33,0.70
2020,12,04,08,34,0.70
2020,12,04,08,35,0.70
2020,12,04,08,36,0.70
2020,12,04,08,37,0.70
2020,12,04,08,38,0.70
2020,12,04,08,39,0.70
2020,12,04,08,40,0.70
2020,12,04,08,41,0.80
2020,12,04,08,42,0.80
2020,12,04,08,43,0.80
2020,12,04,08,44,0.90
2020,12,04,08,45,1.00
2020,12,04,08,46,1.00
2020,12,04,08,47,1.10
2020,12,04,08,48,1.20
2020,12,04,08,49,1.30
2020,12,04,08,50,1.40
2020,12,04,08,51,1.50
2020,12,04,08,52,1.50
2020,12,04,08,53,1.60
2020,12,04,08,54,1.70
2020,12,04,08,55,1.70
2020,12,04,08,56,1.70
2020,12,04,08,57,1.70
2020,12,04,08,58,1.70
2020,12,04,08,59,1.70
2020,12,04,09,00,1.70
2020,12,04,09,01,1.70
2020,12,04,09,02,1.70
2020,12,04,09,03,1.70
2020,12,04,09,04,1.70
2020,12,04,09,05,1.70
2020,12,04,09,06,1.70
2020,12,04,09,07,1.70
2020,12,04,09,08,1.70
2020,12,04,09,09,1.70
2020,12,04,09,10,1.70
2020,12,04,09,11,1.70
2020,12,04,09,12,1.70
2020,12,04,09,13,1.80
2020,12,04,09,14,1.80
2020,12,04,09,15,1.80
2020,12,04,09,16,1.90
2020,12,04,09,17,1.90
2020,12,04,09,18,2.00
2020,12,04,09,19,2.00
2020,12,04,09,20,2.10
2020,12,04,09,21,2.10
2020,12,04,09,22,2.20
2020,12,04,09,23,2.30
2020,12,04,09,24,2.40
2020,12,04,09,25,2.50
2020,12,04,09,26,2.50
2020,12,04,09,27,2.60
2020,12,04,09,28,2.70
2020,12,04,09,29,2.70
2020,12,04,09,30,2.80
2020,12,04,09,31,2.80
2020,12,04,09,32,2.80
2020,12,04,09,33,2.90
2020,12,04,09,34,3.00
2020,12,04,09,35,3.10
2020,12,04,09,36,3.10
2020,12,04,09,37,3.20
2020,12,04,09,38,3.20
2020,12,04,09,39,3.30
2020,12,04,09,40,3.30
2020,12,04,09,41,3.30
2020,12,04,09,42,3.40
2020,12,04,09,43,3.50
2020,12,04,09,44,3.60
2020,12,04,09,45,3.70
2020,12,04,09,46,3.70
2020,12,04,09,47,3.80
2020,12,04,09,48,3.80
2020,12,04,09,49,3.90
2020,12,04,09,50,3.90
2020,12,04,09,51,4.00
2020,12,04,09,52,4.00
2020,12,04,09,53,4.10
2020,12,04,09,54,4.20
2020,12,04,09,55,4.20
2020,12,04,09,56,4.30
2020,12,04,09,57,4.30
2020,12,04,09,58,4.40
2020,12,04,09,59,4.40
2020,12,04,10,00,4.50
2020,12,04,10,01,4.50
2020,12,04,10,02,4.50
2020,12,04,10,03,4.60
2020,12,04,10,04,4.60
2020,12,04,10,05,4.60
2020,12,04,10,06,4.70
2020,12,04,10,07,4.70
2020,12,04,10,08,4.70
2020,12,04,10,09,4.80
2020,12,04,10,10,4.80
2020,12,04,10,11,4.80
2020,12,04,10,12,4.80
2020,12,04,10,13,4.80
2020,12,04,10,14,4.90
2020,12,04,10,15,4.90
2020,12,04,10,16,5.00
2020,12,04,10,17,5.00
2020,12,04,10,18,5.10
2020,12,04,10,19,5.10
2020,12,04,10,20,5.20
2020,12,04,10,21,5.20
2020,12,04,10,22,5.30
2020,12,04,10,23,5.30
2020,12,04,10,24,5.40
2020,12,04,10,25,5.40
2020,12,04,10,26,5.50
2020,12,04,10,27,5.60
2020,12,04,10,28,5.60
2020,12,04,10,29,5.70
2020,12,04,10,30,5.70
2020,12,04,10,31,5.70
2020,12,04,10,32,5.80
2020,12,04,10,33,5.80
2020,12,04,10,34,5.80
2020,12,04,10,35,5.80
2020,12,04,10,36,5.90
2020,12,04,10,37,6.00
2020,12,04,10,38,6.10
2020,12,04,10,39,6.10
2020,12,04,10,40,6.20
2020,12,04,10,41,6.30
2020,12,04,10,42,6.30
2020,12,04,10,43,6.40
2020,12,04,10,44,6.40
2020,12,04,10,45,6.40
2020,12,04,10,46,6.50
2020,12,04,10,47,6.50
2020,12,04,10,48,6.60
2020,12,04,10,49,6.60
2020,12,04,10,50,6.70
2020,12,04,10,51,6.80
2020,12,04,10,52,6.90
2020,12,04,10,53,6.90
2020,12,04,10,54,6.90
2020,12,04,10,55,7.00
2020,12,04,10,56,7.10
2020,12,04,10,57,7.10
2020,12,04,10,58,7.10
2020,12,04,10,59,7.20
2020,12,04,11,00,7.20
2020,12,04,11,01,7.20
2020,12,04,11,02,7.30
2020,12,04,11,03,7.30
2020,12,04,11,04,7.40
2020,12,04,11,05,7.50
2020,12,04,11,06,7.50
2020,12,04,11,07,7.50
2020,12,04,11,08,7.60
2020,12,04,11,09,7.70
2020,12,04,11,10,7.70
2020,12,04,11,11,7.80
2020,12,04,11,12,7.90
2020,12,04,11,13,7.90
2020,12,04,11,14,8.00
2020,12,04,11,15,8.00
2020,12,04,11,16,8.10
2020,12,04,11,17,8.10
2020,12,04,11,18,8.20
2020,12,04,11,19,8.30
2020,12,04,11,20,8.30
2020,12,04,11,21,8.30
2020,12,04,11,22,8.40
2020,12,04,11,23,8.50
2020,12,04,11,24,8.50
2020,12,04,11,25,8.60
2020,12,04,11,26,8.60
2020,12,04,11,27,8.70
2020,12,04,11,28,8.70
2020,12,04,11,29,8.80
2020,12,04,11,30,8.90
2020,12,04,11,31,8.90
2020,12,04,11,32,9.00
2020,12,04,11,33,9.10
2020,12,04,11,34,9.10
2020,12,04,11,35,9.20
2020,12,04,11,36,9.20
2020,12,04,11,37,9.30
2020,12,04,11,38,9.30
2020,12,04,11,39,9.40
2020,12,04,11,40,9.50
2020,12,04,11,41,9.50
2020,12,04,11,42,9.60
2020,12,04,11,43,9.60
2020,12,04,11,44,9.60
2020,12,04,11,45,9.60
2020,12,04,11,46,9.50
2020,12,04,11,47,9.60
2020,12,04,11,48,9.60
2020,12,04,11,49,9.60
2020,12,04,11,50,9.60
2020,12,04,11,51,9.70
2020,12,04,11,52,9.70
2020,12,04,11,53,9.70
2020,12,04,11,54,9.80
2020,12,04,11,55,9.80
2020,12,04,11,56,9.80
2020,12,04,11,57,9.80
2020,12,04,11,58,9.80
2020,12,04,11,59,9.80
2020,12,04,12,00,9.90
2020,12,04,12,01,9.90
2020,12,04,12,02,9.90
2020,12,04,12,03,9.90
2020,12,04,12,04,9.90
2020,12,04,12,05,9.90
2020,12,04,12,06,9.90
2020,12,04,12,07,9.90
2020,12,04,12,08,9.90
2020,12,04,12,09,9.90
2020,12,04,12,10,9.90
2020,12,04,12,11,9.90
2020,12,04,12,12,9.90
2020,12,04,12,13,9.90
2020,12,04,12,14,9.90
2020,12,04,12,15,9.90
2020,12,04,12,16,9.90
2020,12,04,12,17,9.90
2020,12,04,12,18,9.90
2020,12,04,12,19,9.90
2020,12,04,12,20,9.90
2020,12,04,12,21,9.90
2020,12,04,12,22,9.90
2020,12,04,12,23,9.90
2020,12,04,12,24,9.90
2020,12,04,12,25,9.90
2020,12,04,12,26,9.90
2020,12,04,12,27,9.90
2020,12,04,12,28,9.90
2020,12,04,12,29,10.00
2020,12,04,12,30,10.00
2020,12,04,12,31,10.00
2020,12,04,12,32,10.00
2020,12,04,12,33,10.00
2020,12,04,12,34,10.00
2020,12,04,12,35,10.00
2020,12,04,12,36,10.00
2020,12,04,12,37,10.00
2020,12,04,12,38,10.00
2020,12,04,12,39,10.00
2020,12,04,12,40,9.90
2020,12,04,12,41,9.90
2020,12,04,12,42,9.90
2020,12,04,12,43,9.90
2020,12,04,12,44,9.90
2020,12,04,12,45,9.90
2020,12,04,12,46,9.90
2020,12,04,12,47,9.90
2020,12,04,12,48,9.90
2020,12,04,12,49,9.90
2020,12,04,12,50,10.00
2020,12,04,12,51,10.00
2020,12,04,12,52,10.10
2020,12,04,12,53,10.10
2020,12,04,12,54,10.10
2020,12,04,12,55,10.10
2020,12,04,12,56,10.20
2020,12,04,12,57,10.20
2020,12,04,12,58,10.20
2020,12,04,12,59,10.30
2020,12,04,13,00,10.30
2020,12,04,13,01,10.30
2020,12,04,13,02,10.30
2020,12,04,13,03,10.30
2020,12,04,13,04,10.40
2020,12,04,13,05,10.40
2020,12,04,13,06,10.40
2020,12,04,13,07,10.40
2020,12,04,13,08,10.40
2020,12,04,13,09,10.40
2020,12,04,13,10,10.40
2020,12,04,13,11,10.40
2020,12,04,13,12,10.40
2020,12,04,13,13,10.40
2020,12,04,13,14,10.40
2020,12,04,13,15,10.30
2020,12,04,13,16,10.30
2020,12,04,13,17,10.30
2020,12,04,13,18,10.30
2020,12,04,13,19,10.20
2020,12,04,13,20,10.20
2020,12,04,13,21,10.20
2020,12,04,13,22,10.20
2020,12,04,13,23,10.20
2020,12,04,13,24,10.20
2020,12,04,13,25,10.20
2020,12,04,13,26,10.20
2020,12,04,13,27,10.20
2020,12,04,13,28,10.10
2020,12,04,13,29,10.10
2020,12,04,13,30,10.10
2020,12,04,13,31,10.00
2020,12,04,13,32,10.00
2020,12,04,13,33,9.90
2020,12,04,13,34,9.80
2020,12,04,13,35,9.80
2020,12,04,13,36,9.80
2020,12,04,13,37,9.80
2020,12,04,13,38,9.80
2020,12,04,13,39,9.80
2020,12,04,13,40,9.80
2020,12,04,13,41,9.80
2020,12,04,13,42,9.70
2020,12,04,13,43,9.60
2020,12,04,13,44,9.50
2020,12,04,13,45,9.50
2020,12,04,13,46,9.40
2020,12,04,13,47,9.30
2020,12,04,13,48,9.20
2020,12,04,13,49,9.10
2020,12,04,13,50,9.10
2020,12,04,13,51,9.00
2020,12,04,13,52,8.90
2020,12,04,13,53,8.90
2020,12,04,13,54,8.80
2020,12,04,13,55,8.70
2020,12,04,13,56,8.70
2020,12,04,13,57,8.60
2020,12,04,13,58,8.50
2020,12,04,13,59,8.50
2020,12,04,14,00,8.40
2020,12,04,14,01,8.40
2020,12,04,14,02,8.30
2020,12,04,14,03,8.30
2020,12,04,14,04,8.30
2020,12,04,14,05,8.30
2020,12,04,14,06,8.20
2020,12,04,14,07,8.20
2020,12,04,14,08,8.20
2020,12,04,14,09,8.20
2020,12,04,14,10,8.20
2020,12,04,14,11,8.10
2020,12,04,14,12,8.10
2020,12,04,14,13,8.10
2020,12,04,14,14,8.10
2020,12,04,14,15,8.10
2020,12,04,14,16,8.00
2020,12,04,14,17,8.00
2020,12,04,14,18,8.00
2020,12,04,14,19,7.90
2020,12,04,14,20,7.90
2020,12,04,14,21,7.90
2020,12,04,14,22,7.90
2020,12,04,14,23,7.90
2020,12,04,14,24,7.90
2020,12,04,14,25,7.90
2020,12,04,14,26,7.80
2020,12,04,14,27,7.80
2020,12,04,14,28,7.80
2020,12,04,14,29,7.80
2020,12,04,14,30,7.80
2020,12,04,14,31,7.80
2020,12,04,14,32,7.80
2020,12,04,14,33,7.70
2020,12,04,14,34,7.70
2020,12,04,14,35,7.70
2020,12,04,14,36,7.70
2020,12,04,14,37,7.70
2020,12,04,14,38,7.70
2020,12,04,14,39,7.70
2020,12,04,14,40,7.60
2020,12,04,14,41,7.60
2020,12,04,14,42,7.60
2020,12,04,14,43,7.60
2020,12,04,14,44,7.60
2020,12,04,14,45,7.60
2020,12,04,14,46,7.60
2020,12,04,14,47,7.60
2020,12,04,14,48,7.60
2020,12,04,14,49,7.60
2020,12,04,14,50,7.60
2020,12,04,14,51,7.60
2020,12,04,14,52,7.60
2020,12,04,14,53,7.60
2020,12,04,14,54,7.60
2020,12,04,14,55,7.60
2020,12,04,14,56,7.60
2020,12,04,14,57,7.60
2020,12,04,14,58,7.60
2020,12,04,14,59,7.60
2020,12,04,15,00,7.60
2020,12,04,15,01,7.60
2020,12,04,15,02,7.60
2020,12,04,15,03,7.60
2020,12,04,15,04,7.60
2020,12,04,15,05,7.60
2020,12,04,15,06,7.60
2020,12,04,15,07,7.50
2020,12,04,15,08,7.50
2020,12,04,15,09,7.50
2020,12,04,15,10,7.50
2020,12,04,15,11,7.40
2020,12,04,15,12,7.40
2020,12,04,15,13,7.40
2020,12,04,15,14,7.40
2020,12,04,15,15,7.40
2020,12,04,15,16,7.40
2020,12,04,15,17,7.30
2020,12,04,15,18,7.30
2020,12,04,15,19,7.30
2020,12,04,15,20,7.30
2020,12,04,15,21,7.30
2020,12,04,15,22,7.30
2020,12,04,15,23,7.30
2020,12,04,15,24,7.30
2020,12,04,15,25,7.30
2020,12,04,15,26,7.30
2020,12,04,15,27,7.30
2020,12,04,15,28,7.30
2020,12,04,15,29,7.20
2020,12,04,15,30,7.20
2020,12,04,15,31,7.20
2020,12,04,15,32,7.20
2020,12,04,15,33,7.20
2020,12,04,15,34,7.20
2020,12,04,15,35,7.20
2020,12,04,15,36,7.20
2020,12,04,15,37,7.20
2020,12,04,15,38,7.10
2020,12,04,15,39,7.10
2020,12,04,15,40,7.10
2020,12,04,15,41,7.10
2020,12,04,15,42,7.10
2020,12,04,15,43,7.10
2020,12,04,15,44,7.10
2020,12,04,15,45,7.10
2020,12,04,15,46,7.10
2020,12,04,15,47,7.10
2020,12,04,15,48,7.00
2020,12,04,15,49,7.00
2020,12,04,15,50,6.90
2020,12,04,15,51,6.90
2020,12,04,15,52,6.90
2020,12,04,15,53,6.80
2020,12,04,15,54,6.80
2020,12,04,15,55,6.80
2020,12,04,15,56,6.70
2020,12,04,15,57,6.70
2020,12,04,15,58,6.70
2020,12,04,15,59,6.70
2020,12,04,16,00,6.60
2020,12,04,16,01,6.60
2020,12,04,16,02,6.60
2020,12,04,16,03,6.50
2020,12,04,16,04,6.50
2020,12,04,16,05,6.50
2020,12,04,16,06,6.40
2020,12,04,16,07,6.40
2020,12,04,16,08,6.40
2020,12,04,16,09,6.30
2020,12,04,16,10,6.30
2020,12,04,16,11,6.30
2020,12,04,16,12,6.20
2020,12,04,16,13,6.20
2020,12,04,16,14,6.20
2020,12,04,16,15,6.10
2020,12,04,16,16,6.10
2020,12,04,16,17,6.10
2020,12,04,16,18,6.00
2020,12,04,16,19,6.00
2020,12,04,16,20,5.90
2020,12,04,16,21,5.80
2020,12,04,16,22,5.80
2020,12,04,16,23,5.80
2020,12,04,16,24,5.70
2020,12,04,16,25,5.70
2020,12,04,16,26,5.60
2020,12,04,16,27,5.60
2020,12,04,16,28,5.60
2020,12,04,16,29,5.50
2020,12,04,16,30,5.50
2020,12,04,16,31,5.50
2020,12,04,16,32,5.40
2020,12,04,16,33,5.40
2020,12,04,16,34,5.40
2020,12,04,16,35,5.30
2020,12,04,16,36,5.30
2020,12,04,16,37,5.30
2020,12,04,16,38,5.20
2020,12,04,16,39,5.20
2020,12,04,16,40,5.20
2020,12,04,16,41,5.20
2020,12,04,16,42,5.10
2020,12,04,16,43,5.10
2020,12,04,16,44,5.10
2020,12,04,16,45,5.10
2020,12,04,16,46,5.10
2020,12,04,16,47,5.00
2020,12,04,16,48,5.00
2020,12,04,16,49,4.90
2020,12,04,16,50,4.90
2020,12,04,16,51,4.80
2020,12,04,16,52,4.80
2020,12,04,16,53,4.80
2020,12,04,16,54,4.70
2020,12,04,16,55,4.70
2020,12,04,16,56,4.60
2020,12,04,16,57,4.60
2020,12,04,16,58,4.60
2020,12,04,16,59,4.60
2020,12,04,17,00,4.60
2020,12,04,17,01,4.50
2020,12,04,17,02,4.50
2020,12,04,17,03,4.50
2020,12,04,17,04,4.50
2020,12,04,17,05,4.50
2020,12,04,17,06,4.40
2020,12,04,17,07,4.40
2020,12,04,17,08,4.40
2020,12,04,17,09,4.30
2020,12,04,17,10,4.30
2020,12,04,17,11,4.20
2020,12,04,17,12,4.20
2020,12,04,17,13,4.20
2020,12,04,17,14,4.20
2020,12,04,17,15,4.20
2020,12,04,17,16,4.20
2020,12,04,17,17,4.20
2020,12,04,17,18,4.10
2020,12,04,17,19,4.10
2020,12,04,17,20,4.10
2020,12,04,17,21,4.10
2020,12,04,17,22,4.10
2020,12,04,17,23,4.00
2020,12,04,17,24,3.90
2020,12,04,17,25,3.90
2020,12,04,17,26,3.80
2020,12,04,17,27,3.80
2020,12,04,17,28,3.80
2020,12,04,17,29,3.80
2020,12,04,17,30,3.80
2020,12,04,17,31,3.70
2020,12,04,17,32,3.70
2020,12,04,17,33,3.60
2020,12,04,17,34,3.60
2020,12,04,17,35,3.60
2020,12,04,17,36,3.50
2020,12,04,17,37,3.50
2020,12,04,17,38,3.50
2020,12,04,17,39,3.50
2020,12,04,17,40,3.50
2020,12,04,17,41,3.50
2020,12,04,17,42,3.50
2020,12,04,17,43,3.50
2020,12,04,17,44,3.50
2020,12,04,17,45,3.50
2020,12,04,17,46,3.40
2020,12,04,17,47,3.40
2020,12,04,17,48,3.40
2020,12,04,17,49,3.40
2020,12,04,17,50,3.40
2020,12,04,17,51,3.40
2020,12,04,17,52,3.40
2020,12,04,17,53,3.40
2020,12,04,17,54,3.40
2020,12,04,17,55,3.40
2020,12,04,17,56,3.30
2020,12,04,17,57,3.30
2020,12,04,17,58,3.30
2020,12,04,17,59,3.20
2020,12,04,18,00,3.20
2020,12,04,18,01,3.20
2020,12,04,18,02,3.20
2020,12,04,18,03,3.10
2020,12,04,18,04,3.00